User: anonymous   Login
Location: Unspecified
(0.0000°N, 0.0000°E)
Time: 00:01:44
(UTC+00:00)
Language:

STARLINK-31273 - Orbit

View from above orbital plane
View from above orbital plane
View from above satellite
View from above satellite

Ground track
Ground track

The orbit is defined by the following mean orbital elements,

1 58846U          26145.43600103 +.00000000 +00000-0 +22461-4 0 00008
2 58846  53.1602 208.0371 0001179  85.6290 274.4845 15.30195150    03
Epoch (UTC): 25 May 2026 10:27:50
Eccentricity: 0.0001179
inclination: 53.1602°
perigee height: 474 km
apogee height: 476 km
right ascension of ascending node: 208.0371°
argument of perigee: 85.6290°
revolutions per day: 15.30195150
mean anomaly at epoch: 274.4845°

The dashed part of the orbit path shows where the satellite is in the earth's shadow,  

DLR